Content
SEND FEEDBACK

Daily
Averages
Monthly
Summary
United States of America

BAYSIDE, NEW YORK


Home > North America > United States > New York
Elevation: 11 feet     Latitude: 40 46N     Longitude: 073 54W

WEATHER
 
SELECT A DAY
Number of Records: 194,144;   Date Range: 1/1/95 - 10/29/14
 
SHARE

PRINT THIS DATA

[ ← Previous Day ]
WEATHER ALMANAC - SEPTEMBER 28, 2013
[ Next Day → ]
[ °C ]   °F
Weather ElementAverageHighLow
Temperature65.1 °F72 °F (5:51 pm)57.9 °F (5:51 am)
Dewpoint49.7 °F53.1 °F (11:51 pm)46.9 °F (4:51 pm)
Humidity58.5 %75 % (5:51 am)42 % (4:51 pm)
Barometer30.28 in30.32 in (8:51 am)30.24 in (11:51 pm)
Wind Speed7.5 mph12.7 mph (3:51 pm)
Weather ElementAverage
Visibility10 mi
Wind DirectionENE (83.9 °)

Weather ElementTotal
Precipitation---
Growing Degree Days15 (Base 50)
Averaged from 23 records on September 28, 2013
WEATHER CONDITIONS BREAKOUT
WIND DIRECTION BREAKOUT
WEATHER BY HOUR - SEPTEMBER 28, 2013
[ °C ]   °F
Local TimeTemperatureDewpointHumidityBarometerVisibilityWind DirectionWind SpeedGust SpeedPrecipitationEventsConditions
1:51 AM61.0 °F51.1 °F70 %30.26 in10.0 miNorth (350°)9.2 mphScattered Clouds
2:51 AM60.1 °F50.0 °F69 %30.26 in10.0 miNorth (10°)5.8 mphPartly Cloudy
3:51 AM59.0 °F50.0 °F72 %30.26 in10.0 miNorth (10°)4.6 mphPartly Cloudy
4:51 AM59.0 °F50.0 °F72 %30.27 in10.0 miNNE (30°)8.1 mphPartly Cloudy
5:51 AM57.9 °F50.0 °F75 %30.28 in10.0 miNorth (10°)6.9 mphClear
6:51 AM57.9 °F50.0 °F75 %30.30 in10.0 miNorth (10°)8.1 mphClear
7:51 AM59.0 °F50.0 °F72 %30.31 in10.0 miNorth (10°)5.8 mphPartly Cloudy
8:51 AM62.1 °F50.0 °F65 %30.32 in10.0 miNE (40°)6.9 mphPartly Cloudy
9:51 AM64.0 °F50.0 °F60 %30.32 in10.0 miNE (50°)8.1 mphPartly Cloudy
10:51 AM66.0 °F51.1 °F59 %30.32 in10.0 miENE (60°)6.9 mphPartly Cloudy
11:51 AM68.0 °F48.9 °F50 %30.32 in10.0 miNE (40°)9.2 mphPartly Cloudy
12:51 PM70.0 °F48.9 °F47 %30.30 in10.0 miNE (50°)11.5 mphScattered Clouds
1:51 PM71.1 °F48.9 °F45 %30.29 in10.0 miENE (60°)9.2 mphScattered Clouds
2:51 PM71.1 °F48.0 °F44 %30.27 in10.0 miNE (50°)11.5 mphScattered Clouds
3:51 PM71.1 °F48.0 °F44 %30.26 in10.0 miENE (60°)12.7 mphScattered Clouds
4:51 PM71.1 °F46.9 °F42 %30.25 in10.0 miENE (60°)10.4 mphPartly Cloudy
5:51 PM72.0 °F48.0 °F43 %30.25 in10.0 miENE (60°)10.4 mphPartly Cloudy
6:51 PM68.0 °F50.0 °F52 %30.25 in10.0 miSouth (190°)3.5 mphScattered Clouds
7:51 PM66.9 °F51.1 °F57 %30.25 in10.0 miSouth (170°)5.8 mphPartly Cloudy
8:51 PM66.0 °F48.9 °F54 %30.25 in10.0 miSouth (170°)3.5 mphPartly Cloudy
9:51 PM66.0 °F50.0 °F56 %30.26 in10.0 miSSE (150°)4.6 mphMostly Cloudy
10:51 PM66.0 °F50.0 °F56 %30.25 in10.0 miSSE (150°)4.6 mphPartly Cloudy
11:51 PM64.0 °F53.1 °F67 %30.24 in10.0 miSE (140°)4.6 mphPartly Cloudy
Hourly data recorded from KLGA, located miles away from Bayside, New York







STORIES FROM OUR PARTNERS